Chicago Executive, IL

5:53 PM CST on December 14, 2019 (GMT -0600)
Chicago Executive

Weather History for KPWK - September, 2019

Change the Weather History Date:

Saturday, September 28, 2019

  Actual Average Record
Temperature  
Mean Temperature 62 °F 59 °F  
Max Temperature 64 °F 69 °F 85 °F (2013)
Min Temperature 57 °F 49 °F 42 °F (2006)
Degree Days  
Heating Degree Days 2 7  
Month to date heating degree days 6 86  
Since 1 July heating degree days 6 96  
Cooling Degree Days 0 1  
Month to date cooling degree days 165 77  
Year to date cooling degree days 972 774  
Growing Degree Days 12 (Base 50)    
Moisture  
Dew Point 56 °F    
Average Humidity 85    
Maximum Humidity 90    
Minimum Humidity 70    
Precipitation  
Precipitation 0.17 in 0.11 in 1.86 in (1999)
Month to date precipitation 6.81 2.93  
Year to date precipitation 36.13 25.41  
Sea Level Pressure  
Sea Level Pressure 30.05 in    
Wind  
Wind Speed 8 mph ()    
Max Wind Speed 20 mph    
Max Gust Speed 29 mph    
Visibility 7.3 miles    
Events Rain , Thunderstorm    
T = Trace of Precipitation, MM = Missing Value Source: Averaged Metar Reports

Daily Weather History Graph

Daily Weather History Graph

Search for Another Location

Airport or City:

Astronomy

Sep. 28, 2019 Rise Set
Actual Time 6:45 AM CDT 6:38 PM CDT
Civil Twilight 6:17 AM CDT 7:06 PM CDT
Nautical Twilight 5:44 AM CDT 7:39 PM CDT
Astronomical Twilight 5:11 AM CDT 8:11 PM CDT
Moon 6:19 AM CDT (9/28) 7:05 PM CDT (9/28)
Length of Visible Light 12h 49m
Length of Day
11h 53m
Waning Crescent, 0% of the Moon is Illuminated
Sep 28
Waning Crescent
Sep 28
New
Oct 5
First Quarter
Oct 13
Full
Oct 21
Last Quarter

Hourly Weather History & Observations

Time (CDT) Temp. Dew Point Humidity Pressure Visibility Wind Dir Wind Speed Gust Speed Precip Events Conditions
12:01 AM 68.0 °F 64.9 °F 90% 29.81 in 10.0 mi SW 4.6 mph - 0.00 in Rain , Thunderstorm Light Rain
12:17 AM 68.0 °F 64.9 °F 90% 29.82 in 10.0 mi NE 4.6 mph - 0.00 in Rain Light Rain
12:52 AM 66.0 °F 62.1 °F 87% 29.84 in 4.0 mi NNE 9.2 mph - 0.01 in Rain Light Rain
1:14 AM 64.0 °F 61.0 °F 90% 29.84 in 3.0 mi NNE 13.8 mph - 0.02 in Rain Light Rain
1:37 AM 63.0 °F 60.1 °F 90% 29.85 in 8.0 mi NE 6.9 mph - 0.03 in Rain Light Rain
1:52 AM 63.0 °F 60.1 °F 90% 29.86 in 6.0 mi NNE 5.8 mph - 0.05 in Rain Light Rain
2:37 AM 63.0 °F 60.1 °F 90% 29.87 in 4.0 mi NE 5.8 mph - 0.01 in Rain Light Rain
2:52 AM 63.0 °F 59.0 °F 87% 29.87 in 4.0 mi North 4.6 mph - 0.03 in Rain Light Rain
3:01 AM 63.0 °F 60.1 °F 90% 29.87 in 5.0 mi North 6.9 mph - 0.00 in Rain Light Rain
3:52 AM 63.0 °F 59.0 °F 87% 29.88 in 9.0 mi North 9.2 mph - 0.01 in   Overcast
4:52 AM 63.0 °F 59.0 °F 87% 29.93 in 10.0 mi NE 4.6 mph - N/A   Overcast
5:52 AM 62.1 °F 59.0 °F 90% 29.98 in 7.0 mi ESE 4.6 mph - N/A   Overcast
6:22 AM 62.1 °F 59.0 °F 90% 29.99 in 2.5 mi NE 4.6 mph - 0.01 in Rain Light Rain
6:52 AM 62.1 °F 59.0 °F 90% 29.99 in 3.0 mi North 6.9 mph - 0.04 in Rain Light Rain
7:06 AM 61.0 °F 57.9 °F 90% 30.00 in 2.5 mi NNE 8.1 mph - 0.01 in Rain Light Rain
7:18 AM 61.0 °F 57.9 °F 90% 30.01 in 3.0 mi North 8.1 mph - 0.01 in   Overcast
7:33 AM 61.0 °F 57.9 °F 90% 30.01 in 2.5 mi NNE 10.4 mph - 0.01 in   Overcast
7:41 AM 61.0 °F 57.9 °F 90% 30.02 in 3.0 mi NNE 11.5 mph - 0.01 in   Overcast
7:52 AM 61.0 °F 57.9 °F 90% 30.02 in 4.0 mi NNE 11.5 mph - 0.01 in   Overcast
8:26 AM 61.0 °F 57.9 °F 90% 30.04 in 2.5 mi North 12.7 mph - 0.01 in Rain Light Rain
8:37 AM 61.0 °F 57.9 °F 90% 30.05 in 4.0 mi NNE 11.5 mph 20.7 mph 0.01 in Rain Light Rain
8:52 AM 60.1 °F 57.0 °F 90% 30.05 in 6.0 mi North 15.0 mph 23.0 mph 0.02 in   Overcast
9:52 AM 59.0 °F 55.0 °F 87% 30.08 in 7.0 mi North 12.7 mph 23.0 mph 0.00 in   Overcast
10:24 AM 59.0 °F 55.0 °F 87% 30.09 in 10.0 mi North 11.5 mph 20.7 mph N/A   Overcast
10:31 AM 59.0 °F 55.9 °F 90% 30.09 in 10.0 mi NNE 16.1 mph 25.3 mph N/A   Overcast
10:52 AM 60.1 °F 55.0 °F 83% 30.10 in 10.0 mi NNE 12.7 mph 21.9 mph N/A   Overcast
11:05 AM 60.1 °F 55.0 °F 83% 30.11 in 10.0 mi North 16.1 mph 24.2 mph N/A   Overcast
11:52 AM 61.0 °F 54.0 °F 78% 30.13 in 10.0 mi NNE 11.5 mph 21.9 mph N/A   Overcast
12:52 PM 57.9 °F 53.1 °F 84% 30.16 in 9.0 mi North 12.7 mph 28.8 mph N/A   Overcast
1:06 PM 57.9 °F 52.0 °F 81% 30.17 in 10.0 mi NNE 15.0 mph 24.2 mph N/A   Overcast
1:52 PM 59.0 °F 51.1 °F 75% 30.17 in 10.0 mi North 13.8 mph 23.0 mph N/A   Overcast
2:52 PM 59.0 °F 51.1 °F 75% 30.18 in 10.0 mi NNE 11.5 mph 23.0 mph N/A   Overcast
3:52 PM 57.9 °F 51.1 °F 78% 30.21 in 8.0 mi NNE 11.5 mph 20.7 mph N/A   Overcast
4:47 PM 57.2 °F 51.8 °F 82% 30.20 in 10.0 mi NNE 12.7 mph 21.9 mph N/A   Overcast
4:52 PM 57.9 °F 51.1 °F 78% 30.21 in 10.0 mi NNE 11.5 mph 20.7 mph N/A   Overcast
5:52 PM 57.9 °F 50.0 °F 75% 30.21 in 10.0 mi NNE 15.0 mph 23.0 mph N/A   Overcast
6:52 PM 57.9 °F 48.0 °F 70% 30.19 in 10.0 mi NNE 9.2 mph 18.4 mph N/A   Overcast
7:52 PM 57.0 °F 48.9 °F 74% 30.20 in 10.0 mi NNE 10.4 mph 17.3 mph N/A   Overcast
8:52 PM 57.9 °F 48.9 °F 72% 30.24 in 10.0 mi NNE 6.9 mph - N/A   Overcast
9:52 PM 57.9 °F 50.0 °F 75% 30.24 in 10.0 mi NNE 6.9 mph - N/A   Overcast
10:52 PM 59.0 °F 52.0 °F 78% 30.22 in 10.0 mi NNE 4.6 mph - N/A   Overcast
11:52 PM 59.0 °F 54.0 °F 83% 30.22 in 10.0 mi NE 3.5 mph - 0.00 in Rain Light Rain